This is the latest recevied weather packets stored in our database for station/object OK2ILA-1. If no packets are shown the sender has not sent any weather packets the latest 10 day(s).
| Time | Temp. | Humidity | Pressure | Rain* | Wind** | Luminosity | Snow |
|---|---|---|---|---|---|---|---|
| 1778140406 | 20° C | 100% | 1011.5 hPa | 0 mm | - | - | - |
| 1778139685 | 20° C | 100% | 1011.3 hPa | 0 mm | - | - | - |
| 1778138964 | 19.44° C | 100% | 1011.3 hPa | 0 mm | - | - | - |
| 1778138244 | 18.33° C | 100% | 1011.3 hPa | 0 mm | - | - | - |
| 1778137523 | 17.78° C | 100% | 1011.2 hPa | 0 mm | - | - | - |
| 1778136802 | 17.22° C | 100% | 1011.2 hPa | 0 mm | - | - | - |
| 1778136082 | 16.67° C | 100% | 1011.1 hPa | 0 mm | - | - | - |
| 1778135361 | 16.67° C | 100% | 1010.9 hPa | 0 mm | - | - | - |
| 1778134640 | 16.11° C | 100% | 1010.9 hPa | 0 mm | - | - | - |
| 1778133920 | 16.11° C | 100% | 1010.8 hPa | 0 mm | - | - | - |
| 1778133199 | 16.11° C | 100% | 1010.7 hPa | 0 mm | - | - | - |
| 1778132478 | 15.56° C | 100% | 1010.6 hPa | 0 mm | - | - | - |
| 1778131757 | 15.56° C | 100% | 1010.4 hPa | 0 mm | - | - | - |
| 1778131037 | 15° C | 100% | 1010.3 hPa | 0 mm | - | - | - |
| 1778130316 | 14.44° C | 100% | 1010.3 hPa | 0 mm | - | - | - |
| 1778129595 | 14.44° C | 100% | 1010.3 hPa | 0 mm | - | - | - |
| 1778128875 | 14.44° C | 100% | 1010 hPa | 0 mm | - | - | - |
| 1778128154 | 13.89° C | 100% | 1009.8 hPa | 0 mm | - | - | - |
| 1778127433 | 13.89° C | 100% | 1009.6 hPa | 0 mm | - | - | - |
| 1778126713 | 13.89° C | 100% | 1009.6 hPa | 0 mm | - | - | - |
| 1778125992 | 13.89° C | 100% | 1009.4 hPa | 0 mm | - | - | - |
| 1778125271 | 13.89° C | 100% | 1009.2 hPa | 0 mm | - | - | - |
| 1778124551 | 13.89° C | 100% | 1009.1 hPa | 0 mm | - | - | - |
| 1778123830 | 13.89° C | 100% | 1009.1 hPa | 0 mm | - | - | - |
| 1778123109 | 13.33° C | 100% | 1009.1 hPa | 0 mm | - | - | - |
* Rain latest hour (hover to see other rain measurements)
** Current wind speed in m/s (hover to see current wind gust speed)